Location: Alpine
(43.1636°N, 111.0180°W)
Time: 05:28:09
(UTC+00:00)

Tiros 1 despin weight - Pass Details

Date: 01 June 2022
Orbit: 591 x 639 km, 48.2° (Epoch: 30 June)

Event Time Altitude Azimuth Distance (km) Brightness Sun altitude
Rises 23:46:55 0° 249° (WSW) 2,897 ? 32.0°
Reaches altitude 10° 23:49:14 10° 251° (WSW) 1,985 ? 31.6°
Maximum altitude 23:53:48 77° 337° (NNW) 634 ? 30.8°
Drops below altitude 10° 23:58:19 10° 64° (ENE) 1,959 ? 30.0°
Sets 00:00:36 0° 66° (ENE) 2,857 ? 29.5°
